STARLINK-2335

decayed
NORAD ID: 47878 Int'l Des: 2021-021 Owner: SPXS Country: US Constellation: starlink
LEOCIRCULAR
Gruppe

Über STARLINK-2335

Beschreibung wird geladen...

Höhenverlauf

Altitude vs Time

uPlot chart will show altitude changes over time

Zweizeiliger Elementsatz

1 47878U 21021U 25055.76717884 .19845140 12430-4 71120-3 0 9995
2 47878 53.0265 127.1078 0004535 231.2136 230.7975 16.44194757219326
Epoch: 24. Feb. 2025 • Age: 4865 hours

Aktueller Status

Position data unavailable
Startdatum 14. März 2021
Alter 4.5 years
Verglühungsdatum 24. Feb. 2025
Typ internet

Technische Details

Klassifizierung Payload
Masse 260.00 kg
Trockenmasse 248.00 kg
Gesamtmasse 260.00 kg
Länge 0.20 m
Durchmesser 2.80 m
Spannweite 9.00 m
Form Box + pan
Hersteller SPXS
Bus-Typ Starlink
Phasenstatus Reentered
Besitzer/Staat SPXS/US

Große Konstellationen

Loading constellations...